GLOBALSTAR M096 [+] (39075 NORAD) Tracking and Keplerian Element Data

This shows tracking and keplerian element data for the satellite.

Feedback or suggestion? Click here.




ElementValue
Catalog39075
NameGLOBALSTAR M096 [+]
Epoch Orbit27195
Epoch Day352.12360551
Epoch Year2018
RAAN254.0775
Inclination52.007
Eccentricity0.0001229
Argument of Perigee61.0465
Mean Anonmoly299.0525
Mean Motion12.62263926
Decay Rate-1.03E-06
L11 39075U 13005D 18352.12360551 -.00000103 00000-0 66311-5 0 9992
L22 39075 52.0070 254.0775 0001229 61.0465 299.0525 12.62263926271951

Live tracking and technical data element details for GLOBALSTAR M096 [+] (NORAD 39075). GLOBALSTAR M096 [+] can be tracked NOW for your location showing map with azimuth and elevation plus other details from your city location.

Track the satellite on the map from your city or location and see movement details for azimuth, elevation, latitude, longitude, range, height, and movement on the map or in text.







IsCatalogInMostPopularTable: catalog: 39075, numindb: 86
Update: records affected: 1



GetName: 39075 GLOBALSTAR M096 [+]

Hit Count: updated at: Wed, 19 Dec 2018 15:19:53 GMT